[[{"header":{"parameterUnit":"m.s-1","parameterCategory":1,"la1":30.2991,"la2":30.254,"lo1":-89.0895,"lo2":-89.0444,"dy":0.0017,"dx":0.0017,"nx":28,"ny":28,"refTime":"2024-04-13T21:00:00:Z","depth":0,"parameterNumber":2,"parameterNumberName":"U-component_of_WINDS"},"data":[0,0,0,0,0,0,0,0,0,0,0,0,0,0,0,0,0,0,0,0,0,0,0,0,0,0,0,0,0,0,0,0,0,0,0,0,0,0,0,0,0,0,0,0,0,0,0,0,0,0,0,0,0,0,0,0,0,0,0.7855,0.7855,0,0.7888,0.7888,0.7888,0.7892,0.7892,0.7891,0.7891,0.7923,0.7924,0.7926,0,0,0,0,0,0,0,0,0,0,0,0,0,0.7792,0.7794,0.7855,0.7855,0.7855,0.7887,0.7888,0.7888,0.7892,0.7892,0.7891,0.7891,0.7923,0.7924,0.7926,0,0,0,0,0,0,0,0,0,0,0,0,0,0.7822,0.7794,0.7855,0.7861,0.7862,0.7887,0.7888,0.7888,0.7892,0.7892,0.7891,0.7891,0.7922,0.7924,0.7926,0.7946,0,0,0.7931,0.7932,0,0,0,0,0,0,0,0,0.782,0.7824,0.786,0.7861,0.7862,0.7885,0.7878,0.7908,0.7892,0.7881,0.7891,0.7891,0.7911,0.7914,0.7921,0.7948,0.7949,0.7931,0.7932,0.7933,0.7934,0,0,0,0,0,0,0,0.7818,0.7823,0.7868,0.786,0.7862,0.7862,0.7865,0.7884,0.7898,0.7882,0.7882,0.7886,0.7911,0.7919,0.7922,0.795,0.7931,0.7933,0.7934,0.7935,0.7993,0.7994,0,0,0,0,0,0,0.7815,0.7821,0.7867,0.7869,0.7839,0.7863,0.7867,0.7878,0.7898,0.79,0.7886,0.7886,0.7916,0.792,0.7923,0.7947,0.7933,0.7935,0.7936,0.7993,0.7993,0.7994,0,0,0,0,0,0,0.7814,0.7819,0.7865,0.7845,0.7851,0.7865,0.7877,0.7879,0.7887,0.7901,0.7904,0.7892,0.7916,0.792,0.794,0.7948,0.7936,0.7937,0.7992,0.7993,0.7994,0.7996,0,0,0,0,0,0,0.7812,0.7819,0.7827,0.7845,0.7852,0.7883,0.7878,0.788,0.789,0.789,0.7907,0.7909,0.7916,0.7937,0.7942,0.795,0.7939,0.7991,0.7992,0.7993,0.7995,0.7996,0.7998,0,0,0,0,0,0.781,0.7827,0.7828,0.7833,0.7863,0.7883,0.7887,0.7895,0.7891,0.7899,0.7908,0.7909,0.7946,0.794,0.7944,0.7953,0.7991,0.7992,0.7993,0.7994,0.7996,0.7998,0,0,0,0,0,0,0.7809,0.7829,0.7831,0.7854,0.7867,0.7884,0.7895,0.7897,0.7911,0.791,0.7918,0.7922,0.7941,0.7949,0.7941,0.7973,0.7968,0.797,0.7967,0.7969,0.797,0.7968,0.794,0,0,0,0,0,0.7812,0.7827,0.7844,0.7862,0.7869,0.7881,0.789,0.7894,0.7908,0.7913,0.7924,0.7937,0.7951,0.7961,0.7975,0.7996,0.7999,0.8005,0.8006,0.8007,0.8008,0.8019,0.8021,0.7998,0.7998,0.7998,0,0,0.7817,0.783,0.7839,0.7863,0.7873,0.7888,0.7885,0.7901,0.7912,0.7916,0.7935,0.7943,0.7958,0.7978,0.7987,0.7985,0.8016,0.8008,0.8009,0.801,0.802,0.8022,0.8024,0.7999,0.7998,0.7998,0,0,0.7834,0.7846,0.7863,0.7873,0.7889,0.7897,0.7901,0.7917,0.7923,0.7942,0.7945,0.7957,0.7983,0.7993,0.8001,0.802,0.8021,0.8025,0.8032,0.8042,0.8043,0.8045,0.8051,0.8053,0.8026,0.8026,0.8026,0,0.7839,0.7862,0.7871,0.7886,0.7896,0.79,0.7916,0.7925,0.7945,0.7951,0.7949,0.798,0.799,0.8012,0.8016,0.8023,0.8027,0.8023,0.8043,0.8044,0.8046,0.8051,0.8054,0.8027,0.8027,0.8027,0.8027,0,0.7866,0.7882,0.7893,0.7912,0.7923,0.7939,0.7949,0.7958,0.7962,0.7969,0.7988,0.8,0.8016,0.8022,0.8026,0.8044,0.8042,0.8041,0.8036,0.8048,0.8054,0.8056,0.8027,0.8027,0.8027,0.8027,0,0,0.7884,0.7907,0.7911,0.7919,0.7937,0.7949,0.7964,0.798,0.7988,0.8001,0.8013,0.8034,0.8032,0.8042,0.8046,0.8055,0.8068,0.8053,0.8053,0.8054,0.8088,0.8088,0.809,0.8069,0.807,0.807,0.8086,0,0.7903,0.7931,0.7938,0.7961,0.7975,0.7979,0.7992,0.8004,0.8011,0.8023,0.803,0.8044,0.8042,0.8048,0.8057,0.8065,0.8075,0.8064,0.808,0.808,0.8075,0.8093,0.8094,0.8108,0.8088,0.8089,0.8089,0,0.7928,0.7942,0.7967,0.7981,0.7987,0.7999,0.8013,0.8026,0.8038,0.8043,0.8053,0.8056,0.8071,0.8065,0.8085,0.8078,0.8084,0.8089,0.809,0.8091,0.8085,0.8094,0.8113,0.8115,0.8093,0.8092,0.8092,0,0.7937,0.7962,0.798,0.7986,0.8004,0.8012,0.802,0.8032,0.8041,0.8053,0.8059,0.8073,0.808,0.8091,0.8097,0.8093,0.8116,0.8112,0.8119,0.8119,0.8124,0.8123,0.8143,0.8129,0.8129,0.8129,0.8129,0,0.7956,0.7971,0.7984,0.7994,0.8011,0.8018,0.8034,0.8041,0.8052,0.8064,0.8068,0.8078,0.8087,0.8098,0.8104,0.8118,0.8122,0.8125,0.8126,0.8125,0.8124,0.8129,0.8127,0.813,0.813,0.813,0.8129,0,0.7969,0.7978,0.7998,0.8013,0.8017,0.8028,0.804,0.805,0.8057,0.8072,0.8075,0.8086,0.81,0.8107,0.8125,0.8128,0.8144,0.8145,0.814,0.814,0.8147,0.8146,0.8171,0.8174,0.8158,0.8159,0.8159,0,0.7981,0.7992,0.8008,0.8016,0.8024,0.8037,0.8046,0.8054,0.8063,0.8077,0.8085,0.8099,0.8111,0.8132,0.8141,0.8153,0.8154,0.8162,0.8156,0.8153,0.8153,0.8152,0.8153,0.8163,0.8163,0.8163,0.8163,0,0.7999,0.8003,0.8016,0.803,0.804,0.8052,0.8063,0.8069,0.8079,0.8088,0.8102,0.8111,0.8128,0.8142,0.8155,0.8162,0.8164,0.8165,0.8167,0.8165,0.8161,0.8162,0.8142,0.8164,0.8164,0.8164,0.8164,0.8164,0.8011,0.8021,0.8033,0.8047,0.8056,0.8067,0.8076,0.8084,0.8096,0.8111,0.8115,0.8129,0.814,0.8159,0.8166,0.8176,0.8175,0.8179,0.8179,0.818,0.818,0.816,0.8179,0.8179,0.8179,0.8179,0.8179,0,0.8029,0.8037,0.805,0.8065,0.8076,0.8077,0.8089,0.8098,0.811,0.8121,0.8132,0.8147,0.816,0.817,0.8182,0.8189,0.819,0.8192,0.8191,0.8192,0.8181,0.8177,0.8191,0.8191,0.8191,0.8191,0.8191,0.8191,0.8039,0.8055,0.806,0.8081,0.8089,0.8103,0.811,0.8119,0.8127,0.8144,0.8155,0.8161,0.8171,0.8184,0.8195,0.8198,0.8202,0.8204,0.8206,0.8195,0.8193,0.8192,0.8189,0.8205,0.8205,0.8217,0.8217,0.8217]},{"header":{"parameterUnit":"m.s-1","parameterCategory":1,"la1":30.2991,"la2":30.254,"lo1":-89.0895,"lo2":-89.0444,"dy":0.0017,"dx":0.0017,"nx":28,"ny":28,"refTime":"2024-04-13T21:00:00:Z","depth":0,"parameterNumber":3,"parameterNumberName":"V-component_of_WINDS"},"data":[0,0,0,0,0,0,0,0,0,0,0,0,0,0,0,0,0,0,0,0,0,0,0,0,0,0,0,0,0,0,0,0,0,0,0,0,0,0,0,0,0,0,0,0,0,0,0,0,0,0,0,0,0,0,0,0,0,0,3.1678,3.1678,0,3.1677,3.1677,3.1677,3.1616,3.1614,3.1612,3.1611,3.161,3.1612,3.1613,0,0,0,0,0,0,0,0,0,0,0,0,0,3.1625,3.1626,3.1678,3.1678,3.1678,3.1677,3.1677,3.1677,3.1616,3.1614,3.1612,3.161,3.161,3.1611,3.1613,0,0,0,0,0,0,0,0,0,0,0,0,0,3.1638,3.1626,3.1678,3.1647,3.1644,3.1677,3.1677,3.1677,3.1616,3.1614,3.1611,3.1609,3.1609,3.1611,3.1613,3.1675,0,0,3.162,3.1621,0,0,0,0,0,0,0,0,3.1638,3.164,3.1652,3.1649,3.1646,3.1644,3.1658,3.1677,3.1617,3.1627,3.1611,3.1608,3.1623,3.1624,3.1629,3.1675,3.1675,3.162,3.1622,3.1623,3.1623,0,0,0,0,0,0,0,3.1637,3.164,3.1677,3.1652,3.1648,3.1633,3.1632,3.1661,3.1639,3.1626,3.1621,3.1622,3.1621,3.1627,3.1629,3.1675,3.162,3.1622,3.1624,3.1625,3.1771,3.1773,0,0,0,0,0,0,3.164,3.164,3.1677,3.1677,3.1636,3.1636,3.1635,3.1647,3.1638,3.1634,3.1624,3.1619,3.1625,3.1626,3.1629,3.1699,3.1623,3.1625,3.1626,3.1768,3.1771,3.1774,0,0,0,0,0,0,3.1639,3.1644,3.1677,3.1657,3.166,3.1639,3.1653,3.1648,3.1654,3.1637,3.1633,3.1635,3.1623,3.1626,3.1664,3.1699,3.1626,3.1628,3.1765,3.1769,3.1773,3.1842,0,0,0,0,0,0,3.1638,3.1644,3.1668,3.1658,3.1662,3.1713,3.1656,3.165,3.1658,3.1652,3.1645,3.1642,3.1621,3.1661,3.1666,3.17,3.163,3.1762,3.1767,3.1771,3.1837,3.1848,3.1858,0,0,0,0,0,3.1636,3.1688,3.1669,3.1674,3.1691,3.1715,3.1717,3.1692,3.1661,3.1685,3.1673,3.1642,3.1694,3.1665,3.1671,3.1706,3.176,3.1766,3.1771,3.1832,3.1846,3.1857,0,0,0,0,0,0,3.1702,3.1686,3.1665,3.1715,3.1717,3.1705,3.1733,3.1708,3.1718,3.1712,3.168,3.1679,3.1722,3.1718,3.1686,3.1765,3.1721,3.1728,3.1766,3.1779,3.1789,3.1789,3.1631,0,0,0,0,0,3.1722,3.1744,3.1728,3.1774,3.1776,3.1755,3.1765,3.1745,3.1746,3.1746,3.1738,3.1739,3.1756,3.1767,3.1782,3.1836,3.1833,3.1863,3.1874,3.1882,3.1888,3.1916,3.1928,3.1793,3.1793,3.1793,0,0,3.1764,3.1758,3.1774,3.1787,3.1786,3.1808,3.1756,3.1782,3.1798,3.175,3.1785,3.1779,3.1779,3.1825,3.1846,3.1823,3.1925,3.189,3.1897,3.1898,3.1923,3.1936,3.1947,3.1797,3.1796,3.1795,0,0,3.1852,3.185,3.1887,3.1887,3.1886,3.1872,3.1881,3.1872,3.1866,3.1901,3.1865,3.1884,3.1914,3.1914,3.1919,3.2006,3.1978,3.2012,3.2066,3.2093,3.2104,3.2113,3.2143,3.2154,3.2018,3.2019,3.2019,0,3.1905,3.1937,3.1909,3.1938,3.1944,3.1902,3.1938,3.194,3.1944,3.1949,3.1924,3.1959,3.1956,3.2002,3.2023,3.2028,3.2037,3.2012,3.2104,3.2113,3.2122,3.215,3.2161,3.2023,3.2022,3.2022,3.2021,0,3.2,3.2023,3.2053,3.2058,3.2067,3.21,3.2077,3.209,3.207,3.2058,3.2094,3.2089,3.21,3.211,3.2091,3.2153,3.2139,3.211,3.2065,3.2139,3.2165,3.2175,3.2028,3.2027,3.2026,3.2025,0,0,3.2129,3.2118,3.2129,3.213,3.2126,3.2142,3.2173,3.2184,3.2196,3.22,3.2224,3.2249,3.2222,3.2227,3.2208,3.2232,3.23,3.2199,3.2199,3.2217,3.2366,3.2387,3.24,3.2281,3.2283,3.2285,3.2365,0,3.2213,3.2263,3.2239,3.2293,3.2313,3.2272,3.2299,3.2299,3.2288,3.2304,3.2292,3.231,3.2274,3.2276,3.2298,3.2287,3.2329,3.2281,3.2302,3.2303,3.2302,3.2413,3.2436,3.2512,3.2375,3.2377,3.2378,0,3.2317,3.2325,3.238,3.2371,3.2379,3.2403,3.241,3.2426,3.2425,3.2416,3.2421,3.2396,3.2424,3.2381,3.2419,3.2387,3.2395,3.239,3.2393,3.2393,3.2344,3.2415,3.2536,3.2547,3.2394,3.2393,3.2392,0,3.2404,3.2429,3.2464,3.2466,3.2457,3.2475,3.2472,3.2468,3.2476,3.2483,3.2488,3.2499,3.2504,3.2513,3.2491,3.2462,3.2532,3.2487,3.2524,3.2525,3.254,3.2539,3.2662,3.2547,3.2547,3.2547,3.2547,0,3.2499,3.2534,3.2503,3.2525,3.2562,3.2534,3.2572,3.2565,3.2562,3.2581,3.2548,3.2567,3.2537,3.2553,3.2537,3.257,3.2573,3.2566,3.2561,3.2568,3.2569,3.2572,3.2565,3.255,3.2549,3.2549,3.2548,0,3.2602,3.2582,3.2618,3.2606,3.2604,3.2632,3.2622,3.2641,3.2628,3.2653,3.2658,3.2638,3.2655,3.2634,3.2649,3.2638,3.2683,3.2671,3.2683,3.2679,3.2717,3.2713,3.2845,3.2861,3.2737,3.2738,3.2739,0,3.2663,3.2689,3.268,3.269,3.2689,3.2706,3.2714,3.2687,3.2697,3.2697,3.2716,3.273,3.274,3.2769,3.2756,3.2767,3.2754,3.28,3.2755,3.2762,3.2753,3.2751,3.2753,3.2808,3.281,3.2811,3.2812,0,3.2774,3.2763,3.2775,3.2784,3.2794,3.28,3.2804,3.2814,3.2786,3.2799,3.2815,3.2823,3.2838,3.2852,3.286,3.2856,3.2829,3.2826,3.2835,3.2842,3.2848,3.2844,3.2706,3.2823,3.2822,3.2821,3.282,3.282,3.2857,3.2877,3.2873,3.2888,3.2888,3.2891,3.2909,3.2898,3.2911,3.2921,3.2905,3.2925,3.2923,3.293,3.293,3.2946,3.2926,3.2939,3.2942,3.2946,3.2951,3.2846,3.2947,3.2947,3.2946,3.2946,3.2946,0,3.2964,3.296,3.2974,3.2979,3.299,3.2964,3.2966,3.2977,3.2996,3.2996,3.3006,3.3024,3.3038,3.3026,3.3036,3.3051,3.3039,3.3055,3.3053,3.3052,3.2968,3.2959,3.3064,3.3064,3.3064,3.3064,3.3064,3.3064,3.3022,3.3054,3.3043,3.3075,3.307,3.3089,3.3092,3.3096,3.3095,3.3117,3.3128,3.312,3.3115,3.3125,3.3136,3.3132,3.3137,3.3157,3.3148,3.307,3.3058,3.3047,3.3038,3.3158,3.3159,3.3231,3.3231,3.3232]}]]